Location: Iesi
(43.5167°N, 13.2333°E)
Time: 00:46:38
(UTC+00:00)

Cosmos 2237 - Pass Details

Date: 08 August 2020
Orbit: 847 x 855 km, 70.8° (Epoch: 19 September)

Event Time Altitude Azimuth Distance (km) Brightness Sun altitude
Rises 21:52:25 0° 337° (NNW) 3,432 8.6 -27.9°
Reaches altitude 10° 21:54:56 10° 341° (NNW) 2,491 7.6 -28.1°
Maximum altitude 22:00:36 61° 61° (ENE) 962 4.4 -28.4°
Enters shadow 22:00:36 61° 62° (ENE) 962 4.4 -28.4°
